TimeCST,TemperatureF,Dew PointF,Humidity,Sea Level PressureIn,VisibilityMPH,Wind Direction,Wind SpeedMPH,Gust SpeedMPH,PrecipitationIn,Events,Conditions,WindDirDegrees,DateUTC
12:15 AM,17.6,5.5,59,30.16,10.0,West,10.4,-,N/A,,Clear,280,2013-01-04 06:15:00
12:35 AM,18.3,5.9,58,30.15,10.0,West,11.5,-,N/A,,Clear,280,2013-01-04 06:35:00
12:55 AM,19.0,5.9,57,30.14,10.0,West,11.5,-,N/A,,Clear,280,2013-01-04 06:55:00
1:15 AM,18.3,6.3,59,30.14,10.0,West,11.5,-,N/A,,Clear,280,2013-01-04 07:15:00
1:35 AM,18.3,6.4,60,30.13,10.0,West,12.7,-,N/A,,Clear,280,2013-01-04 07:35:00
1:55 AM,18.3,6.3,59,30.13,10.0,West,12.7,-,N/A,,Clear,280,2013-01-04 07:55:00
2:15 AM,18.5,6.3,59,30.13,10.0,West,12.7,-,N/A,,Clear,280,2013-01-04 08:15:00
2:35 AM,19.2,6.6,58,30.13,10.0,WNW,11.5,-,N/A,,Clear,290,2013-01-04 08:35:00
2:55 AM,19.0,6.8,59,30.13,10.0,WNW,12.7,-,N/A,,Clear,290,2013-01-04 08:55:00
3:15 AM,18.5,6.4,59,30.13,10.0,WNW,11.5,-,N/A,,Clear,290,2013-01-04 09:15:00
5:55 AM,13.8,4.6,67,30.11,10.0,West,10.4,-,N/A,,Clear,260,2013-01-04 11:55:00
6:15 AM,14.5,4.8,65,30.11,10.0,West,10.4,-,N/A,,Clear,260,2013-01-04 12:15:00
6:35 AM,14.5,4.8,65,30.11,10.0,West,11.5,-,N/A,,Clear,270,2013-01-04 12:35:00
6:55 AM,12.6,4.1,69,30.11,10.0,West,9.2,-,N/A,,Clear,270,2013-01-04 12:55:00
7:15 AM,11.7,3.9,71,30.11,10.0,West,8.1,-,N/A,,Clear,270,2013-01-04 13:15:00
7:35 AM,11.8,3.9,71,30.11,10.0,West,6.9,-,N/A,,Clear,260,2013-01-04 13:35:00
7:55 AM,13.8,5.0,68,30.11,10.0,West,10.4,-,N/A,,Clear,260,2013-01-04 13:55:00
8:15 AM,12.6,3.9,68,30.11,10.0,West,11.5,-,N/A,,Clear,260,2013-01-04 14:15:00
8:35 AM,11.5,3.4,70,30.11,10.0,West,11.5,-,N/A,,Clear,260,2013-01-04 14:35:00
8:55 AM,12.0,3.7,69,30.11,10.0,West,9.2,-,N/A,,Clear,260,2013-01-04 14:55:00
9:15 AM,14.9,5.4,66,30.11,10.0,West,6.9,-,N/A,,Clear,270,2013-01-04 15:15:00
9:35 AM,17.2,6.6,63,30.11,10.0,West,8.1,-,N/A,,Clear,260,2013-01-04 15:35:00
9:55 AM,19.6,8.4,62,30.12,10.0,West,8.1,-,N/A,,Clear,260,2013-01-04 15:55:00
10:15 AM,23.5,11.3,60,30.12,10.0,West,6.9,-,N/A,,Clear,280,2013-01-04 16:15:00
10:35 AM,27.9,11.8,51,30.12,10.0,West,9.2,-,N/A,,Clear,280,2013-01-04 16:35:00
10:55 AM,29.3,13.3,51,30.12,10.0,West,8.1,-,N/A,,Clear,280,2013-01-04 16:55:00
11:15 AM,30.9,14.5,51,30.12,10.0,West,5.8,-,N/A,,Clear,280,2013-01-04 17:15:00
11:35 AM,32.2,14.9,49,30.11,10.0,West,6.9,-,N/A,,Clear,270,2013-01-04 17:35:00
11:55 AM,34.0,17.6,51,30.10,10.0,West,5.8,-,N/A,,Clear,280,2013-01-04 17:55:00
12:15 PM,35.1,17.1,48,30.10,10.0,West,5.8,-,N/A,,Clear,260,2013-01-04 18:15:00
12:35 PM,37.4,16.2,42,30.09,10.0,West,5.8,-,N/A,,Clear,260,2013-01-04 18:35:00
12:55 PM,39.2,17.4,41,30.08,10.0,WSW,3.5,-,N/A,,Clear,240,2013-01-04 18:55:00
1:15 PM,40.1,20.7,46,30.08,10.0,SW,3.5,-,N/A,,Clear,230,2013-01-04 19:15:00
1:35 PM,41.0,20.1,43,30.06,10.0,Calm,Calm,-,N/A,,Clear,0,2013-01-04 19:35:00
1:55 PM,41.9,15.1,34,30.05,10.0,Calm,Calm,-,N/A,,Clear,0,2013-01-04 19:55:00
2:15 PM,42.3,13.3,31,30.04,10.0,Calm,Calm,-,N/A,,Clear,0,2013-01-04 20:15:00
2:35 PM,43.7,13.6,30,30.04,10.0,Calm,Calm,-,N/A,,Clear,0,2013-01-04 20:35:00
2:55 PM,44.2,11.5,26,30.02,10.0,Calm,Calm,-,N/A,,Clear,0,2013-01-04 20:55:00
3:15 PM,44.6,12.4,27,30.02,10.0,Calm,Calm,-,N/A,,Clear,0,2013-01-04 21:15:00
3:35 PM,44.4,11.3,26,30.01,10.0,Calm,Calm,-,N/A,,Clear,0,2013-01-04 21:35:00
3:55 PM,44.1,10.9,26,30.01,10.0,Calm,Calm,-,N/A,,Clear,0,2013-01-04 21:55:00
4:15 PM,44.1,10.9,26,30.01,10.0,Calm,Calm,-,N/A,,Clear,0,2013-01-04 22:15:00
4:35 PM,43.9,10.6,26,30.00,10.0,Calm,Calm,-,N/A,,Clear,0,2013-01-04 22:35:00
4:55 PM,43.7,11.3,27,30.00,10.0,Calm,Calm,-,N/A,,Clear,0,2013-01-04 22:55:00
5:35 PM,36.7,16.7,44,29.99,10.0,Calm,Calm,-,N/A,,Clear,0,2013-01-04 23:35:00
5:55 PM,32.5,16.5,52,29.99,10.0,Calm,Calm,-,N/A,,Clear,0,2013-01-04 23:55:00
6:15 PM,30.0,17.1,59,29.99,10.0,Calm,Calm,-,N/A,,Clear,0,2013-01-05 00:15:00
6:35 PM,28.2,15.6,59,29.99,10.0,NNW,3.5,-,N/A,,Clear,340,2013-01-05 00:35:00
6:55 PM,29.8,16.5,58,29.99,10.0,Calm,Calm,-,N/A,,Clear,0,2013-01-05 00:55:00
7:15 PM,25.0,16.2,69,30.00,10.0,Calm,Calm,-,N/A,,Clear,0,2013-01-05 01:15:00
7:35 PM,26.2,16.5,67,30.01,10.0,Calm,Calm,-,N/A,,Clear,0,2013-01-05 01:35:00
7:55 PM,25.5,16.5,69,30.02,10.0,West,5.8,-,N/A,,Clear,260,2013-01-05 01:55:00
8:15 PM,23.4,14.9,70,30.02,10.0,WNW,10.4,-,N/A,,Clear,290,2013-01-05 02:15:00
8:35 PM,22.1,13.1,68,30.02,10.0,WNW,9.2,-,N/A,,Clear,300,2013-01-05 02:35:00
8:55 PM,21.0,12.9,71,30.02,10.0,WNW,8.1,-,N/A,,Clear,300,2013-01-05 02:55:00
9:15 PM,19.4,11.3,71,30.02,10.0,WNW,10.4,-,N/A,,Clear,300,2013-01-05 03:15:00
9:35 PM,20.7,10.0,64,30.02,10.0,WNW,8.1,-,N/A,,Clear,290,2013-01-05 03:35:00
9:55 PM,18.5,9.3,67,30.02,10.0,WNW,6.9,-,N/A,,Clear,290,2013-01-05 03:55:00
10:15 PM,21.9,10.4,61,30.02,10.0,NW,10.4,-,N/A,,Clear,310,2013-01-05 04:15:00
10:35 PM,24.4,10.6,56,30.02,10.0,NW,9.2,-,N/A,,Clear,310,2013-01-05 04:35:00
10:55 PM,21.6,10.6,63,30.02,10.0,NW,10.4,-,N/A,,Clear,310,2013-01-05 04:55:00
11:15 PM,23.4,9.0,54,30.02,10.0,NW,12.7,-,N/A,,Clear,310,2013-01-05 05:15:00
11:35 PM,22.8,8.8,55,30.02,10.0,NW,12.7,-,N/A,,Clear,310,2013-01-05 05:35:00
11:55 PM,23.0,7.7,52,30.02,10.0,NW,9.2,-,N/A,,Clear,310,2013-01-05 05:55:00